Location: Tel Aviv
(32.0670°N, 34.7670°E)
Time: 01:57:08
(UTC+03:00)

Tiros 1 - Pass Details

Date: 23 January 2022
Orbit: 629 x 663 km, 48.4° (Epoch: 26 May)

Event Time Altitude Azimuth Distance (km) Brightness Sun altitude
Rises 20:52:33 0° 198° (SSW) 2,974 - -47.8°
Reaches altitude 10° 20:55:14 10° 185° (S) 2,068 - -48.3°
Maximum altitude 20:59:06 25° 131° (SE) 1,334 - -49.1°
Drops below altitude 10° 21:03:00 10° 76° (ENE) 2,076 - -50.0°
Sets 21:05:40 0° 63° (ENE) 2,989 - -50.5°
